Weather History for Gwinn, MI

Change the Weather History Date:

Tuesday, February 4, 2014

  Actual Average (KESC) Record (KESC)
Temperature  
Mean Temperature 8 °F -  
Max Temperature 17 °F 22 °F 46 °F (2012)
Min Temperature 0 °F 5 °F -18 °F (1970)
Degree Days  
Heating Degree Days 56    
Moisture  
Dew Point 3 °F    
Average Humidity 80    
Maximum Humidity 92    
Minimum Humidity 58    
Precipitation  
Precipitation 0.00 in - - ()
Sea Level Pressure  
Sea Level Pressure 30.28 in    
Wind  
Wind Speed 5 mph (NNW)    
Max Wind Speed 13 mph    
Max Gust Speed 17 mph    
Visibility 9 miles    
Events Snow    
Averages and records for this station are not official NWS values.
T = Trace of Precipitation, MM = Missing Value Source: NWS Daily Summary

Daily Weather History Graph

Daily Weather History Graph

Search for Another Location

Airport:

Trip Planner

Search our weather history database for the weather conditions in past years. The results will help you decide how hot, cold, wet, or windy it might be!

Date:

Astronomy

Feb. 04, 2014 Rise Set
Actual Time 8:08 AM EST 5:58 PM EST
Civil Twilight 7:37 AM EST 6:30 PM EST
Nautical Twilight 7:01 AM EST 7:06 PM EST
Astronomical Twilight 6:26 AM EST 7:41 PM EST
Moon 10:25 AM EST (2/4) No Moon Set
Length of Visible Light 10h 53m
Length of Day
9h 49m
Waxing Crescent, 29% of the Moon is Illuminated
Feb 4
Waxing Crescent
Feb 6
First Quarter
Feb 14
Full
Feb 22
Last Quarter
Mar 1
New

Hourly Weather History & Observations

Time (EST) Temp. Windchill Dew Point Humidity Pressure Visibility Wind Dir Wind Speed Gust Speed Precip Events Conditions
12:17 AM 12.9 °F 1.6 °F 7.0 °F 77% 30.20 in 10.0 mi NNW 8.1 mph - N/A   Scattered Clouds
12:36 AM 12.2 °F 4.3 °F 5.7 °F 75% 30.21 in 10.0 mi NNW 4.6 mph - N/A   Clear
12:57 AM 11.3 °F 5.1 °F 5.7 °F 78% 30.22 in 10.0 mi WNW 3.5 mph - N/A   Clear
1:17 AM 9.7 °F 3.2 °F 5.5 °F 83% 30.22 in 10.0 mi WNW 3.5 mph - N/A   Clear
1:36 AM 7.9 °F 1.2 °F 3.7 °F 83% 30.22 in 10.0 mi WNW 3.5 mph - N/A   Clear
1:57 AM 8.6 °F 0.1 °F 4.8 °F 85% 30.22 in 10.0 mi NW 4.6 mph - N/A   Clear
2:17 AM 7.5 °F 0.8 °F 3.9 °F 85% 30.22 in 10.0 mi NW 3.5 mph - N/A   Clear
2:36 AM 3.0 °F -4.4 °F -0.8 °F 84% 30.23 in 10.0 mi WNW 3.5 mph - N/A   Clear
2:57 AM 0.5 °F -9.3 °F -2.9 °F 85% 30.24 in 10.0 mi NW 4.6 mph - N/A   Clear
3:16 AM 1.4 °F - -2.0 °F 86% 30.24 in 10.0 mi Calm Calm - N/A   Clear
3:37 AM 0.5 °F - -2.6 °F 87% 30.25 in 10.0 mi Calm Calm - N/A   Clear
3:57 AM -0.0 °F -9.9 °F -3.8 °F 84% 30.25 in 10.0 mi WNW 4.6 mph - N/A   Clear
4:16 AM -0.4 °F -8.3 °F -4.0 °F 85% 30.25 in 10.0 mi WNW 3.5 mph - N/A   Clear
4:37 AM 0.5 °F -7.3 °F -3.3 °F 84% 30.26 in 10.0 mi WNW 3.5 mph - N/A   Clear
4:57 AM -0.8 °F - -4.4 °F 85% 30.27 in 10.0 mi Calm Calm - N/A   Clear
5:16 AM -0.2 °F - -3.8 °F 85% 30.28 in 10.0 mi Calm Calm - N/A   Clear
5:37 AM 0.1 °F - -3.5 °F 85% 30.28 in 10.0 mi Calm Calm - N/A   Clear
5:57 AM 1.0 °F - -2.6 °F 85% 30.29 in 10.0 mi Calm Calm - N/A   Clear
6:55 AM 5.0 °F -4.1 °F 1.4 °F 85% 30.30 in 10.0 mi WNW 4.6 mph - N/A   Overcast
7:55 AM 5.0 °F -6.9 °F 1.4 °F 85% 30.31 in 10.0 mi WNW 6.9 mph - N/A   Overcast
8:45 AM 5.0 °F -6.9 °F 1.4 °F 85% 30.34 in 10.0 mi West 6.9 mph - N/A   Overcast
9:50 AM 6.8 °F - 3.2 °F 85% 30.34 in 10.0 mi Calm Calm - N/A   Mostly Cloudy
10:50 AM 12.2 °F 4.3 °F 10.4 °F 92% 30.34 in 10.0 mi NW 4.6 mph - N/A   Mostly Cloudy
11:50 AM 15.8 °F 8.6 °F 5.0 °F 62% 30.34 in 10.0 mi NNW 4.6 mph - N/A   Scattered Clouds
12:50 PM 15.8 °F - 5.0 °F 62% 30.33 in 10.0 mi Calm Calm - N/A   Scattered Clouds
1:55 PM 17.6 °F - 5.0 °F 58% 30.33 in 10.0 mi Calm Calm - N/A   Scattered Clouds
2:50 PM 17.6 °F 8.2 °F 5.0 °F 58% 30.31 in 10.0 mi North 6.9 mph - N/A   Scattered Clouds
3:50 PM 17.6 °F 12.3 °F 5.0 °F 58% 30.31 in 10.0 mi North 3.5 mph - N/A   Clear
4:50 PM 15.8 °F 4.2 °F 6.8 °F 68% 30.32 in 10.0 mi NE 9.2 mph - N/A   Clear
5:50 PM 14.0 °F 3.9 °F 8.6 °F 79% 30.33 in 10.0 mi NE 6.9 mph - N/A   Clear
6:50 PM 12.2 °F -1.8 °F 8.6 °F 85% 30.31 in 10.0 mi NNE 11.5 mph - N/A   Clear
7:50 PM 10.4 °F 0.8 °F 6.8 °F 85% 30.34 in 10.0 mi NNE 5.8 mph - N/A   Mostly Cloudy
8:50 PM 10.4 °F -2.4 °F 5.0 °F 79% 30.32 in 10.0 mi North 9.2 mph - N/A   Overcast
9:50 PM 12.2 °F -2.5 °F 5.0 °F 73% 30.31 in 10.0 mi NNE 12.7 mph - N/A Snow Light Snow
10:17 PM 12.7 °F -0.4 °F 9.0 °F 85% 30.31 in 2.0 mi NNE 10.4 mph - N/A Snow Light Snow
10:37 PM 12.6 °F -1.4 °F 8.4 °F 83% 30.31 in 2.5 mi NNE 11.5 mph - N/A Snow Light Snow
10:56 PM 12.2 °F -1.8 °F 7.5 °F 82% 30.31 in 5.0 mi NNE 11.5 mph 17.3 mph N/A Snow Light Snow
11:17 PM 12.0 °F -2.0 °F 6.8 °F 80% 30.31 in 7.0 mi NNE 11.5 mph - N/A Snow Light Snow
11:36 PM 12.0 °F -0.4 °F 6.4 °F 78% 30.31 in 10.0 mi NE 9.2 mph - N/A   Overcast
11:57 PM 11.7 °F 0.0 °F 6.8 °F 81% 30.30 in 10.0 mi NE 8.1 mph - N/A   Overcast